Location: ??????
(56.0120°N, 39.1740°E)
Time: 08:32:39
(UTC+00:00)

Cosmos 371 Rocket - Pass Details

Date: 14 April 2026
Orbit: 674 x 689 km, 74.0° (Epoch: 9 May)

Event Time Altitude Azimuth Distance (km) Brightness Sun altitude
Rises 19:48:38 0° 332° (NNW) 3,066 8.2 -21.5°
Reaches altitude 10° 19:51:02 10° 338° (NNW) 2,149 7.0 -21.6°
Maximum altitude 19:55:43 48° 53° (NE) 901 3.9 -21.9°
Enters shadow 19:57:02 38° 98° (E) 1,052 3.9 -21.9°
